Weather Roundup
Issued by NWS Springfield, MO

Home | Current Version | Previous Version | Text Only | Print | Product List | Glossary On
Versions: 1 2 3 4 5 6 7 8 9 10 11 12 13 14 15 16 17 18 19 20 21 22 23 24 25 26 27 28 29 30 31 32 33 34 35 36 37 38 39 40 41 42 43 44 45 46 47 48 49 50
000
NZUS99 KSGF 030407
HRRSGF

HOURLY WEATHER
NATIONAL WEATHER SERVICE SPRINGFIELD MO
1100 PM CDT SUN AUG 02 2015

......SGF CWA......

CITY           SKY/WX    TMP DP  RH WIND       PRES   REMARKS
SPRINGFIELD    CLEAR     73  65  75 SW7       29.95R
JOPLIN         CLEAR     76  65  68 S5        29.94R
WEST PLAINS    CLEAR     75  69  81 W3        29.97R
ROLLA          PTCLDY    75  68  78 SW8       29.90S
OSAGE BEACH    CLEAR     79  66  65 SW6       29.91S
BRANSON        CLEAR     73  66  78 CALM      29.98R

......SURROUNDING SGF CWA......

CITY           SKY/WX    TMP DP  RH WIND       PRES   REMARKS
CHANUTE        PTCLDY    74  64  71 S7        29.92R
PARSONS        CLEAR     74  66  76 CALM      29.93S
COFFEYVILLE    CLEAR     73  66  78 SE5       29.92R
EMPORIA        MOCLDY    75  69  81 S7        29.91R
GROVE OK       CLEAR     73  73 100 CALM      29.94S
ROGERS AR      CLEAR     74  66  76 CALM      29.98R
SILOAM SPRINGS MOCLDY    73  64  73 CALM      29.95R
HARRISON AR    CLEAR     73  66  78 CALM      29.98R
NEAR YELLVILLE PTCLDY    79  66  65 CALM      29.93R

......KANSAS AND MISSOURI......

CITY           SKY/WX    TMP DP  RH WIND       PRES   REMARKS
KANSAS CTY INT MOCLDY    77  71  82 S6        29.87R
DOWNTOWN KC    CLEAR     83  70  64 SW6       29.86R
COLUMBIA       CLOUDY    80  70  71 NW14G24   29.93R
SEDALIA        MOCLDY    79  67  66 N6        29.93R
ST JOSEPH      MOCLDY    83  71  67 S3        29.87R
ST LOUIS       CLOUDY    85  66  53 W7        29.86R
SPIRIT OF STL  MOCLDY    76  72  87 CALM      29.85R
KIRKSVILLE     CLOUDY    75  56  51 SW8       29.85R
WICHITA        PTCLDY    77  68  73 S6        29.91S
TOPEKA         PTCLDY    83  71  67 SW6       29.87R
OLATHE         CLEAR     79  68  69 SW8       29.88R

......TENNESSEE......

CITY           SKY/WX    TMP DP  RH WIND       PRES   REMARKS
MEMPHIS        PTCLDY    80  69  69 CALM      29.91R
NASHVILLE      CLEAR     73  54  51 CALM      29.93S

......ARKANSAS.......

CITY           SKY/WX    TMP DP  RH WIND       PRES   REMARKS
FAYETTEVILLE   CLEAR     70  69  97 CALM      29.97R
FT SMITH       CLEAR     81  70  69 CALM      29.90R
LITTLE ROCK    PTCLDY    80  68  66 CALM      29.91R

......OKLAHOMA.......

CITY           SKY/WX    TMP DP  RH WIND       PRES   REMARKS
TULSA          PTCLDY    79  70  74 E3        29.90R
PONCA CITY     CLEAR     78  66  66 SE6       29.91R
MCALESTER      PTCLDY    77  63  61 NE5       29.92R
OKLAHOMA CITY  CLOUDY    76  67  73 SE6       29.91S

......IOWA............

CITY           SKY/WX    TMP DP  RH WIND       PRES   REMARKS
DES MOINES     PTCLDY    74  63  68 W6        29.84R
QUAD CITIES    PTCLDY    76  67  73 W12       29.75R

......ILLINOIS........

CITY           SKY/WX    TMP DP  RH WIND       PRES   REMARKS
QUINCY         CLOUDY    82  64  54 W10       29.80F
CHICAGO        TSTM      68  66  93 NW5G18    29.75R




USA.gov is the U.S. government's official web portal to all federal, state and local government web resources and services.